[[{"header":{"parameterUnit":"m.s-1","parameterCategory":1,"la1":30.2991,"la2":30.254,"lo1":-89.0895,"lo2":-89.0444,"dy":0.0017,"dx":0.0017,"nx":28,"ny":28,"refTime":"2023-08-16T03:00:00:Z","depth":0,"parameterNumber":2,"parameterNumberName":"U-component_of_WINDS"},"data":[0,0,0,0,0,0,0,0,0,0,0,0,0,0,0,0,0,0,0,0,0,0,0,0,0,0,0,0,0,0,0,0,0,0,0,0,0,0,0,0,0,0,0,0,0,0,0,0,0,0,0,0,0,0,0,0,0,0,-0.4783,-0.4785,0,-0.4949,-0.4951,-0.4952,-0.5039,-0.5039,-0.5039,-0.5039,-0.5206,-0.521,-0.5215,0,0,0,0,0,0,0,0,0,0,0,0,0,-0.454,-0.4544,-0.4783,-0.4785,-0.4787,-0.4948,-0.4951,-0.4953,-0.5039,-0.5039,-0.5039,-0.5039,-0.5205,-0.521,-0.5215,0,0,0,0,0,0,0,0,0,0,0,0,0,-0.4669,-0.4545,-0.4783,-0.485,-0.4857,-0.4948,-0.4951,-0.4953,-0.5039,-0.5039,-0.5039,-0.5039,-0.5203,-0.5209,-0.5216,-0.5252,0,0,-0.5236,-0.5239,0,0,0,0,0,0,0,0,-0.4662,-0.4678,-0.4838,-0.4845,-0.4854,-0.4973,-0.4926,-0.5053,-0.5039,-0.497,-0.5039,-0.5039,-0.5128,-0.5141,-0.5172,-0.526,-0.5267,-0.5236,-0.524,-0.5243,-0.5245,0,0,0,0,0,0,0,-0.4653,-0.4672,-0.4849,-0.484,-0.485,-0.4871,-0.4889,-0.4951,-0.5046,-0.4976,-0.4982,-0.5001,-0.5133,-0.5165,-0.5176,-0.527,-0.5236,-0.5242,-0.5246,-0.5248,-0.5397,-0.5397,0,0,0,0,0,0,-0.4633,-0.4663,-0.4843,-0.4854,-0.4756,-0.4875,-0.4896,-0.4935,-0.5045,-0.5063,-0.5001,-0.5004,-0.5154,-0.5169,-0.5182,-0.5233,-0.5243,-0.5249,-0.5253,-0.5396,-0.5397,-0.5397,0,0,0,0,0,0,-0.4628,-0.4649,-0.4837,-0.476,-0.4786,-0.4879,-0.4922,-0.4938,-0.497,-0.5064,-0.5081,-0.5016,-0.5155,-0.5173,-0.5234,-0.524,-0.5252,-0.5258,-0.5396,-0.5396,-0.5397,-0.5333,0,0,0,0,0,0,-0.462,-0.4646,-0.4661,-0.476,-0.479,-0.4886,-0.4922,-0.4941,-0.4982,-0.4988,-0.5084,-0.5099,-0.5156,-0.5224,-0.5241,-0.5249,-0.5263,-0.5396,-0.5396,-0.5397,-0.5335,-0.5331,-0.5327,0,0,0,0,0,-0.4611,-0.4636,-0.4661,-0.4683,-0.4811,-0.4886,-0.4903,-0.4969,-0.4982,-0.4997,-0.5058,-0.5096,-0.5236,-0.523,-0.5249,-0.5259,-0.5396,-0.5396,-0.5397,-0.5336,-0.5331,-0.5327,0,0,0,0,0,0,-0.4534,-0.465,-0.468,-0.4737,-0.4801,-0.4901,-0.4922,-0.4961,-0.5022,-0.5026,-0.5104,-0.5125,-0.5179,-0.5225,-0.5216,-0.53,-0.532,-0.5324,-0.5268,-0.5264,-0.526,-0.5248,-0.5268,0,0,0,0,0,-0.4523,-0.4576,-0.4674,-0.4715,-0.4746,-0.4828,-0.4864,-0.4909,-0.4978,-0.5006,-0.5071,-0.5136,-0.5195,-0.5232,-0.5291,-0.5342,-0.5364,-0.5358,-0.5354,-0.5351,-0.5353,-0.5384,-0.5383,-0.5397,-0.5397,-0.5397,0,0,-0.4502,-0.4572,-0.46,-0.4701,-0.4757,-0.4809,-0.4851,-0.4904,-0.4943,-0.5014,-0.5076,-0.5126,-0.5204,-0.526,-0.5288,-0.53,-0.5354,-0.5351,-0.5347,-0.5352,-0.5384,-0.5382,-0.5381,-0.5397,-0.5397,-0.5397,0,0,-0.449,-0.4549,-0.459,-0.4644,-0.4728,-0.4783,-0.4792,-0.4886,-0.4923,-0.4986,-0.504,-0.5088,-0.5188,-0.5241,-0.5282,-0.5291,-0.5329,-0.5308,-0.5288,-0.5317,-0.5315,-0.5315,-0.5318,-0.5319,-0.531,-0.531,-0.531,0,-0.4453,-0.4535,-0.4605,-0.4656,-0.4699,-0.4766,-0.4808,-0.4857,-0.4955,-0.4983,-0.4996,-0.5123,-0.518,-0.525,-0.5252,-0.5283,-0.5296,-0.5297,-0.531,-0.531,-0.5311,-0.5315,-0.5316,-0.5307,-0.5307,-0.5308,-0.5308,0,-0.4485,-0.4541,-0.4564,-0.4658,-0.4704,-0.4749,-0.4826,-0.4864,-0.4905,-0.4958,-0.5022,-0.5094,-0.5169,-0.5189,-0.5229,-0.5265,-0.527,-0.5295,-0.5317,-0.5305,-0.531,-0.5312,-0.5303,-0.5304,-0.5305,-0.5305,0,0,-0.4428,-0.4562,-0.4569,-0.4613,-0.471,-0.4754,-0.4803,-0.4878,-0.4909,-0.4974,-0.5017,-0.51,-0.5125,-0.517,-0.5217,-0.5242,-0.5246,-0.5265,-0.5268,-0.5259,-0.529,-0.527,-0.527,-0.5272,-0.5272,-0.5273,-0.5283,0,-0.443,-0.4522,-0.4587,-0.4654,-0.4706,-0.4771,-0.4814,-0.4878,-0.4929,-0.4981,-0.5037,-0.5095,-0.5123,-0.5151,-0.5179,-0.5239,-0.5253,-0.524,-0.5312,-0.5314,-0.529,-0.5273,-0.5252,-0.5259,-0.5286,-0.5286,-0.5286,0,-0.4444,-0.4509,-0.4581,-0.4674,-0.4698,-0.4735,-0.4809,-0.4858,-0.4932,-0.4967,-0.5019,-0.5067,-0.5122,-0.5138,-0.5214,-0.5203,-0.5237,-0.5271,-0.5273,-0.5282,-0.5299,-0.5282,-0.5262,-0.5263,-0.529,-0.529,-0.529,0,-0.4396,-0.45,-0.4557,-0.4593,-0.4702,-0.4727,-0.4774,-0.4848,-0.4889,-0.4953,-0.4981,-0.505,-0.5088,-0.514,-0.5206,-0.5212,-0.5275,-0.5298,-0.5306,-0.5304,-0.5316,-0.5314,-0.5301,-0.5337,-0.5337,-0.5337,-0.5337,0,-0.4391,-0.4432,-0.4537,-0.4571,-0.462,-0.4695,-0.474,-0.4792,-0.4858,-0.4904,-0.4964,-0.5006,-0.5091,-0.5142,-0.5194,-0.5249,-0.5266,-0.5296,-0.5309,-0.529,-0.5286,-0.5313,-0.5314,-0.5338,-0.5338,-0.5338,-0.5338,0,-0.4344,-0.4416,-0.4482,-0.4581,-0.4607,-0.4638,-0.4722,-0.4758,-0.4813,-0.4871,-0.4888,-0.4974,-0.5039,-0.511,-0.5197,-0.5232,-0.5284,-0.5303,-0.5259,-0.5267,-0.5271,-0.5269,-0.5274,-0.5279,-0.5312,-0.5311,-0.5311,0,-0.4335,-0.4369,-0.4472,-0.4508,-0.4553,-0.4609,-0.4652,-0.4727,-0.4768,-0.4856,-0.4881,-0.4951,-0.501,-0.5109,-0.5179,-0.5246,-0.5268,-0.5265,-0.5278,-0.5258,-0.5268,-0.5265,-0.5268,-0.526,-0.526,-0.5259,-0.5259,0,-0.4313,-0.4348,-0.4407,-0.4479,-0.4528,-0.4589,-0.4651,-0.4676,-0.4764,-0.4808,-0.4875,-0.4921,-0.5011,-0.5079,-0.5155,-0.5203,-0.5245,-0.5254,-0.526,-0.5241,-0.5214,-0.5228,-0.5248,-0.5254,-0.5254,-0.5254,-0.5255,-0.5255,-0.4286,-0.4319,-0.4397,-0.4461,-0.4516,-0.4574,-0.4613,-0.4673,-0.4731,-0.4811,-0.4852,-0.4918,-0.4992,-0.5099,-0.5146,-0.5199,-0.5212,-0.522,-0.5222,-0.5223,-0.5218,-0.5206,-0.5213,-0.5213,-0.5213,-0.5214,-0.5214,0,-0.4266,-0.432,-0.4379,-0.4465,-0.4515,-0.4553,-0.4624,-0.4664,-0.4722,-0.4788,-0.4845,-0.4923,-0.4989,-0.5064,-0.5135,-0.5163,-0.5184,-0.5179,-0.5178,-0.5188,-0.5202,-0.519,-0.5161,-0.5161,-0.5161,-0.5161,-0.5161,-0.5161,-0.4262,-0.432,-0.4364,-0.445,-0.4504,-0.457,-0.4608,-0.4661,-0.4714,-0.4798,-0.4854,-0.4904,-0.4974,-0.5051,-0.5113,-0.5134,-0.5157,-0.5145,-0.5171,-0.5183,-0.5187,-0.5191,-0.518,-0.515,-0.515,-0.5154,-0.5154,-0.5154]},{"header":{"parameterUnit":"m.s-1","parameterCategory":1,"la1":30.2991,"la2":30.254,"lo1":-89.0895,"lo2":-89.0444,"dy":0.0017,"dx":0.0017,"nx":28,"ny":28,"refTime":"2023-08-16T03:00:00:Z","depth":0,"parameterNumber":3,"parameterNumberName":"V-component_of_WINDS"},"data":[0,0,0,0,0,0,0,0,0,0,0,0,0,0,0,0,0,0,0,0,0,0,0,0,0,0,0,0,0,0,0,0,0,0,0,0,0,0,0,0,0,0,0,0,0,0,0,0,0,0,0,0,0,0,0,0,0,0,-4.8436,-4.8437,0,-4.8483,-4.8483,-4.8484,-4.8423,-4.8421,-4.8419,-4.8416,-4.8459,-4.8462,-4.8465,0,0,0,0,0,0,0,0,0,0,0,0,0,-4.8289,-4.8292,-4.8436,-4.8437,-4.8437,-4.8483,-4.8483,-4.8484,-4.8423,-4.8421,-4.8418,-4.8415,-4.8458,-4.8461,-4.8465,0,0,0,0,0,0,0,0,0,0,0,0,0,-4.8346,-4.8293,-4.8436,-4.8413,-4.8411,-4.8482,-4.8483,-4.8484,-4.8424,-4.8421,-4.8417,-4.8414,-4.8456,-4.8461,-4.8466,-4.856,0,0,-4.848,-4.8482,0,0,0,0,0,0,0,0,-4.8343,-4.8352,-4.8416,-4.8414,-4.8413,-4.8444,-4.8447,-4.8509,-4.8425,-4.8419,-4.8416,-4.8413,-4.8456,-4.846,-4.8476,-4.8562,-4.8564,-4.848,-4.8483,-4.8485,-4.8487,0,0,0,0,0,0,0,-4.8339,-4.8349,-4.8454,-4.8417,-4.8415,-4.8398,-4.8402,-4.8458,-4.8455,-4.8419,-4.8415,-4.8421,-4.8454,-4.8472,-4.8477,-4.8565,-4.848,-4.8485,-4.8487,-4.8489,-4.873,-4.8733,0,0,0,0,0,0,-4.8339,-4.8346,-4.8453,-4.8456,-4.8369,-4.8403,-4.8408,-4.8437,-4.8454,-4.8454,-4.8424,-4.8418,-4.8465,-4.8471,-4.8478,-4.8589,-4.8485,-4.849,-4.8492,-4.8726,-4.8731,-4.8735,0,0,0,0,0,0,-4.8336,-4.8349,-4.8451,-4.84,-4.8412,-4.8409,-4.8442,-4.844,-4.8457,-4.8458,-4.8457,-4.8443,-4.8463,-4.8471,-4.854,-4.859,-4.8492,-4.8496,-4.8722,-4.8728,-4.8733,-4.8814,0,0,0,0,0,0,-4.8332,-4.8348,-4.8385,-4.8401,-4.8415,-4.8515,-4.8445,-4.8443,-4.8466,-4.8459,-4.8475,-4.8475,-4.8461,-4.8534,-4.8545,-4.8595,-4.85,-4.8718,-4.8725,-4.8731,-4.8807,-4.8821,-4.8834,0,0,0,0,0,-4.8327,-4.8405,-4.8388,-4.8401,-4.8462,-4.8518,-4.8525,-4.8509,-4.847,-4.8507,-4.8507,-4.8474,-4.8583,-4.8541,-4.8554,-4.8606,-4.8714,-4.8723,-4.873,-4.88,-4.8818,-4.8833,0,0,0,0,0,0,-4.8393,-4.8407,-4.8387,-4.8474,-4.8495,-4.8507,-4.8553,-4.8529,-4.856,-4.8552,-4.8529,-4.8533,-4.8607,-4.8613,-4.8566,-4.8698,-4.8642,-4.8653,-4.8691,-4.8708,-4.8721,-4.8718,-4.8504,0,0,0,0,0,-4.8418,-4.8465,-4.8473,-4.8548,-4.8561,-4.8555,-4.8579,-4.8565,-4.8585,-4.8594,-4.8599,-4.8619,-4.8657,-4.8683,-4.8719,-4.8807,-4.8809,-4.8849,-4.8863,-4.8874,-4.8883,-4.893,-4.8947,-4.8761,-4.8761,-4.8761,0,0,-4.847,-4.8483,-4.8513,-4.8562,-4.8577,-4.8624,-4.8563,-4.8615,-4.8649,-4.8601,-4.8667,-4.8672,-4.8692,-4.8772,-4.8807,-4.8779,-4.8935,-4.8884,-4.8893,-4.8896,-4.894,-4.8957,-4.8973,-4.8766,-4.8765,-4.8764,0,0,-4.8587,-4.8603,-4.8667,-4.8684,-4.8708,-4.8704,-4.8719,-4.8735,-4.8737,-4.8804,-4.8769,-4.8808,-4.8875,-4.8891,-4.8907,-4.9032,-4.9002,-4.9044,-4.9114,-4.916,-4.9174,-4.9187,-4.9231,-4.9246,-4.9053,-4.9053,-4.9053,0,-4.8647,-4.8718,-4.8702,-4.8757,-4.8779,-4.874,-4.8804,-4.882,-4.8854,-4.8869,-4.8838,-4.8922,-4.8932,-4.9015,-4.9045,-4.906,-4.9076,-4.9041,-4.9174,-4.9187,-4.9198,-4.9239,-4.9256,-4.9058,-4.9058,-4.9057,-4.9057,0,-4.8791,-4.884,-4.8889,-4.8925,-4.8952,-4.9011,-4.9003,-4.9032,-4.9016,-4.9015,-4.9082,-4.9094,-4.9131,-4.915,-4.9134,-4.923,-4.9212,-4.9178,-4.9121,-4.9221,-4.9259,-4.9275,-4.9065,-4.9063,-4.9062,-4.9061,0,0,-4.895,-4.8978,-4.8996,-4.9011,-4.9035,-4.9072,-4.9129,-4.9167,-4.9193,-4.9217,-4.9263,-4.9321,-4.929,-4.9309,-4.9294,-4.9335,-4.9431,-4.9295,-4.9296,-4.932,-4.9537,-4.9562,-4.958,-4.9412,-4.9415,-4.9418,-4.9535,0,-4.9067,-4.9168,-4.9155,-4.925,-4.9295,-4.9259,-4.9308,-4.9327,-4.9328,-4.9364,-4.9364,-4.9405,-4.9362,-4.9373,-4.9411,-4.9412,-4.9474,-4.9403,-4.9453,-4.9455,-4.9448,-4.96,-4.9627,-4.9737,-4.955,-4.9552,-4.9554,0,-4.9217,-4.9249,-4.935,-4.9367,-4.9385,-4.943,-4.9464,-4.95,-4.9521,-4.9518,-4.954,-4.9518,-4.9573,-4.9517,-4.9591,-4.9543,-4.9563,-4.9566,-4.957,-4.9573,-4.951,-4.9607,-4.9771,-4.9788,-4.9577,-4.9576,-4.9574,0,-4.9322,-4.9391,-4.946,-4.9474,-4.9496,-4.9529,-4.9539,-4.9556,-4.958,-4.9609,-4.9624,-4.9658,-4.9677,-4.9703,-4.9691,-4.9651,-4.9767,-4.971,-4.9765,-4.9766,-4.9791,-4.9789,-4.996,-4.9805,-4.9805,-4.9805,-4.9804,0,-4.9454,-4.9516,-4.9507,-4.955,-4.9618,-4.9603,-4.967,-4.9676,-4.9692,-4.9733,-4.9703,-4.9742,-4.9724,-4.9761,-4.9752,-4.9814,-4.9823,-4.9821,-4.9818,-4.9823,-4.9824,-4.9835,-4.9827,-4.9809,-4.9808,-4.9807,-4.9806,0,-4.9583,-4.9579,-4.9652,-4.9668,-4.9673,-4.9723,-4.9735,-4.9774,-4.9772,-4.9825,-4.9836,-4.9834,-4.9876,-4.9867,-4.9912,-4.9906,-4.9985,-4.9972,-4.9978,-4.9975,-5.003,-5.0025,-5.0214,-5.0238,-5.0069,-5.007,-5.0072,0,-4.9666,-4.9714,-4.9736,-4.9762,-4.9776,-4.9819,-4.9843,-4.9829,-4.9856,-4.9883,-4.9918,-4.9958,-4.9989,-5.0058,-5.0059,-5.0094,-5.0081,-5.0145,-5.0086,-5.009,-5.0081,-5.0078,-5.0082,-5.0156,-5.0158,-5.016,-5.0161,0,-4.9815,-4.9811,-4.9849,-4.9887,-4.9918,-4.9946,-4.9971,-4.9994,-4.9982,-5.0013,-5.0057,-5.0081,-5.0129,-5.0169,-5.0201,-5.0209,-5.0183,-5.018,-5.0195,-5.02,-5.0202,-5.0201,-5.0009,-5.0176,-5.0174,-5.0173,-5.0172,-5.0172,-4.9923,-4.9964,-4.9986,-5.0028,-5.0046,-5.0071,-5.0108,-5.0112,-5.0149,-5.0188,-5.0177,-5.0227,-5.0246,-5.0287,-5.0299,-5.0336,-5.0312,-5.0333,-5.0338,-5.0344,-5.035,-5.0197,-5.0342,-5.0342,-5.0341,-5.0341,-5.0341,0,-5.007,-5.0082,-5.0122,-5.0159,-5.0193,-5.0168,-5.0194,-5.0223,-5.0268,-5.0289,-5.0321,-5.0371,-5.0409,-5.0414,-5.0449,-5.0479,-5.0467,-5.0488,-5.0485,-5.0488,-5.037,-5.0354,-5.0497,-5.0497,-5.0497,-5.0497,-5.0497,-5.0497,-5.015,-5.0217,-5.0216,-5.0291,-5.0303,-5.0353,-5.037,-5.0392,-5.0408,-5.0466,-5.0499,-5.0502,-5.0516,-5.0553,-5.0586,-5.0586,-5.06,-5.0626,-5.0621,-5.0512,-5.0496,-5.0481,-5.0466,-5.0629,-5.063,-5.0735,-5.0736,-5.0737]}]]